Location: Igon
(43.1667°N, 0.2333°W)
Time: 14:21:28
(UTC+00:00)

ATLAS CENTAUR R/B - Pass Details

Date: 29 November 2020
Orbit: 477 x 668 km, 64.7° (Epoch: 12 January)

Event Time Altitude Azimuth Distance (km) Brightness Sun altitude
Exits shadow 06:08:44 15° 312° (NW) 1,441 2.9 -11.2°
Maximum altitude 06:11:43 48° 240° (WSW) 681 1.5 -10.7°
Drops below altitude 10° 06:15:33 10° 166° (SSE) 1,785 4.4 -10.0°
Sets 06:17:51 0° 161° (SSE) 2,706 5.5 -9.6°
